Tracking 19903 objects as of 16-Oct-2019
HD Live streaming from Space Station
objects crossing your sky now

OPS 9346 (IDSCS 25)

Track OPS 9346 (IDSCS 25) now!
OPS 9346 (IDSCS 25) is classified as:


NORAD ID: 3289
Int'l Code: 1968-050F
Perigee: 33,753.9 km
Apogee: 34,115.8 km
Inclination: 2.2 °
Period: 1,342.2 minutes
Semi major axis: 40305 km
RCS: 0.3981 m2 (medium)
Launch date: June 13, 1968
Source: United States (US)
Launch site: AIR FORCE EASTERN TEST RANGE (AFETR)
aabbcc
Your satellite tracking list
Your tracking list is empty




NASA's NSSDC Master Catalog

Two Line Element Set (TLE):
1  3289U 68050F   19288.64163640 -.00000107 +00000-0 +00000-0 0  9998
2  3289 002.2361 057.9739 0044900 082.7192 217.1140 01.07288005024502
Source of the keplerian elements: AFSPC